Hurricane Symbol View the latest observations near Atlantic Tropical Storm Alberto.

Station LTBV3 - 9751401 - Lime Tree Bay, St. Croix, VI Image indicating link to RSS feed of recent meteorological observations for station LTBV3


Conditions at LTBV3 as of
(3:30 pm AST)
1930 GMT on 06/19/2024:
     

Click on the graph icon in the table below to see a time series plot of the last five days of that observation.

5-day plot - Wind Direction Wind Direction (WDIR): SE ( 140 deg true )
5-day plot - Wind Speed Wind Speed (WSPD): 8.0 kts
5-day plot - Wind Gust Wind Gust (GST): 13.0 kts
5-day plot - Atmospheric Pressure Atmospheric Pressure (PRES):29.89 in
5-day plot - Air Temperature Air Temperature (ATMP): 86.9 °F
5-day plot - Water Temperature Water Temperature (WTMP): 88.5 °F
5-day plot - Wind Speed at 10 Meters Wind Speed at 10 meters (WSPD10M): 7.8 kts
5-day plot - Wind Speed at 20 Meters Wind Speed at 20 meters (WSPD20M): 9.7 kts
5-day plot -  Wind Speed, Wind Gust and Atmospheric Pressure Combined plot of Wind Speed, Gust, and Air Pressure
NOS Water Level Observation Network Water Level
Previous observations
TIME
(AST)
5-day plot - Wind Direction
WDIR
 
5-day plot - Wind Speed
WSPD
kts
5-day plot - Wind Gust
GST
kts
5-day plot - Wave Height
WVHT
ft
5-day plot - Dominant Wave Period
DPD
sec
5-day plot - Average Wave Period
APD
sec
5-day plot - Mean Wave Direction
MWD
 
5-day plot - Atmospheric Pressure
PRES
in
5-day plot - Pressure Tendency
PTDY
in
5-day plot - Air Temperature
ATMP
°F
5-day plot - Water Temperature
WTMP
°F
5-day plot - Dew Point
DEWP
°F
5-day plot - Salinity
SAL
psu
5-day plot - Visibility
VIS
nmi
5-day plot - Tide (above MLLW)
TIDE
ft
2024-06-19 03:24 pm SE 7.0 12.0----29.90- 87.3 88.5----
2024-06-19 03:18 pm SE 6.0 12.0----29.90- 87.3 88.3----
2024-06-19 03:12 pm SE 8.0 12.0----29.90- 87.1 88.3----
2024-06-19 03:06 pm SE 6.0 12.0----29.90- 87.4 88.3----
2024-06-19 03:00 pm SE 7.0 11.1----29.90-0.04 87.6 88.3----
2024-06-19 02:54 pm SE 8.9 12.0----29.90- 87.8 88.3----
2024-06-19 02:48 pm SE 8.0 12.0----29.90- 87.8 88.3----
2024-06-19 02:42 pm SE 6.0 14.0----29.91- 88.0 88.3----
2024-06-19 02:36 pm SE 7.0 12.0----29.91- 88.5 88.3----
2024-06-19 02:30 pm SE 8.0 12.0----29.91- 88.3 88.3----
2024-06-19 02:24 pm SE 7.0 12.0----29.92- 88.0 88.3----
2024-06-19 02:18 pm SE 7.0 14.0----29.92- 87.4 88.3----
2024-06-19 02:12 pm SE 8.0 12.0----29.93- 87.4 88.3----
2024-06-19 02:06 pmSSE 8.0 13.0----29.93- 87.6 88.3----
2024-06-19 02:00 pm SE 7.0 12.0----29.93-0.02 88.0 88.3----
2024-06-19 01:54 pm SE 8.9 13.0----29.93- 88.0 88.3----
2024-06-19 01:48 pm SE 7.0 11.1----29.93- 88.3 88.3----
2024-06-19 01:42 pm SE 8.9 12.0----29.93- 88.0 88.3----
2024-06-19 01:36 pm SE 8.0 13.0----29.93- 88.0 88.3----
2024-06-19 01:30 pm SE 7.0 12.0----29.93- 88.0 88.3----
2024-06-19 01:24 pm SE 9.9 12.0----29.93- 87.6 88.3----
2024-06-19 01:18 pm SE 8.9 12.0----29.93- 87.8 88.2----
2024-06-19 01:12 pm SE 8.9 13.0----29.93- 88.0 88.2----
2024-06-19 01:06 pm SE 8.9 14.0----29.93- 87.6 88.2----
2024-06-19 01:00 pm SE 11.1 15.0----29.93+0.00 87.4 88.2----
2024-06-19 12:54 pm SE 9.9 13.0----29.93- 87.1 88.2----
2024-06-19 12:48 pm SE 8.0 14.0----29.93- 86.5 88.2----
2024-06-19 12:42 pm SE 9.9 13.0----29.93- 86.4 88.2----
2024-06-19 12:36 pm SE 8.0 14.0----29.93- 85.1 88.2----
2024-06-19 12:30 pm SE 12.0 15.0----29.93- 84.2 88.2----
2024-06-19 12:24 pmSSE 7.0 13.0----29.93- 83.5 88.2----
2024-06-19 12:18 pm SE 9.9 15.0----29.94- 84.9 88.2----
2024-06-19 12:12 pm SE 9.9 14.0----29.94- 86.7 88.2----
2024-06-19 12:06 pm SE 8.0 11.1----29.94- 87.1 88.2----
2024-06-19 12:00 pm SE 11.1 13.0----29.94+0.02 86.9 88.2----
2024-06-19 11:54 am SE 9.9 14.0----29.94- 86.7 88.2----
2024-06-19 11:48 am SE 7.0 11.1----29.94- 86.7 88.2----
2024-06-19 11:42 am SE 6.0 9.9----29.94- 86.9 88.2----
2024-06-19 11:36 am SE 8.0 12.0----29.95- 86.9 88.2----
2024-06-19 11:30 am SE 11.1 14.0----29.95- 86.9 88.2----
2024-06-19 11:24 am SE 7.0 13.0----29.95- 87.1 88.2----
2024-06-19 11:18 am SE 9.9 14.0----29.95- 87.4 88.2----
2024-06-19 11:12 am SE 8.9 12.0----29.95- 87.4 88.2----
2024-06-19 11:06 am SE 8.9 15.0----29.95- 87.1 88.2----
2024-06-19 11:00 am SE 11.1 13.0----29.94+0.04 87.3 88.2----
2024-06-19 10:54 am SE 11.1 15.0----29.94- 87.3 88.2----
2024-06-19 10:48 am SE 8.9 14.0----29.94- 87.6 88.0----
2024-06-19 10:42 am SE 11.1 15.0----29.94- 87.6 88.0----
2024-06-19 10:36 am SE 9.9 15.0----29.94- 87.6 88.0----
2024-06-19 10:30 am SE 9.9 14.0----29.94- 87.6 88.0----
2024-06-19 10:24 amSSE 7.0 14.0----29.94- 87.1 88.0----
2024-06-19 10:18 am SE 11.1 15.0----29.94- 87.1 88.0----
2024-06-19 10:12 am SE 11.1 15.9----29.94- 87.1 88.0----
2024-06-19 10:06 am SE 11.1 15.0----29.93- 87.1 88.0----
2024-06-19 10:00 am SE 9.9 15.9----29.93+0.04 86.9 88.0----
2024-06-19 09:54 am SE 11.1 15.9----29.93- 86.5 88.0----
2024-06-19 09:48 am SE 11.1 15.0----29.93- 86.9 88.0----
2024-06-19 09:42 am SE 9.9 14.0----29.93- 86.7 88.0----
2024-06-19 09:36 amSSE 8.0 15.0----29.93- 86.9 88.0----
2024-06-19 09:30 amSSE 8.9 15.9----29.93- 86.5 87.8----
2024-06-19 09:24 am SE 14.0 18.1----29.93- 86.5 88.0----
2024-06-19 09:18 am SE 11.1 15.0----29.93- 86.7 88.0----
2024-06-19 09:12 am SE 12.0 15.0----29.93- 86.7 88.0----
2024-06-19 09:06 am SE 12.0 15.0----29.92- 86.7 88.0----
2024-06-19 09:00 am SE 12.0 15.9----29.92+0.05 86.7 87.8----
2024-06-19 08:54 am SE 12.0 15.0----29.92- 86.5 87.8----
2024-06-19 08:48 am SE 13.0 15.9----29.92- 86.4 88.0----
2024-06-19 08:42 am SE 12.0 14.0----29.92- 86.7 88.0----
2024-06-19 08:36 am SE 8.9 13.0----29.91- 86.5 88.0----
2024-06-19 08:30 am SE 8.0 13.0----29.91- 86.4 88.0----
2024-06-19 08:24 am SE 8.0 13.0----29.91- 86.2 88.0----
2024-06-19 08:18 am SE 8.9 13.0----29.91- 86.0 88.0----
2024-06-19 08:12 am SE 5.1 13.0----29.91- 86.4 88.0----
2024-06-19 08:06 am SE 8.0 15.0----29.91- 86.2 88.0----
2024-06-19 08:00 am SE 7.0 8.9----29.91+0.04 86.2 88.0----
2024-06-19 07:54 amESE 6.0 8.9----29.91- 85.6 88.0----
2024-06-19 07:48 am SE 5.1 8.0----29.91-- 88.0----
2024-06-19 07:42 amESE 2.9 9.9----29.90-- 88.0----
2024-06-19 07:36 am E 6.0 8.9----29.90-- 88.0----
2024-06-19 07:30 amENE 8.0 11.1----29.90- 83.8 88.0----
2024-06-19 07:24 amESE 6.0 12.0----29.90- 84.9 88.0----
2024-06-19 07:18 amESE 6.0 13.0----29.90- 84.4 88.0----
2024-06-19 07:12 am SE 7.0 13.0----29.90- 84.0 88.0----
2024-06-19 07:06 am SE 7.0 12.0----29.89- 83.7 88.2----
2024-06-19 07:00 am SE 5.1 8.9----29.89+0.02 84.6 88.2----
2024-06-19 06:54 am SE 5.1 11.1----29.89- 84.6 88.3----
2024-06-19 06:48 am SE 5.1 8.9----29.89- 84.6 88.3----
2024-06-19 06:42 am SE 5.1 8.0----29.89- 84.7 88.2----
2024-06-19 06:36 am SE 5.1 9.9----29.89- 84.6 88.2----
2024-06-19 06:30 am SE 6.0 12.0----29.88- 84.6 88.3----
2024-06-19 06:24 am SE 7.0 12.0----29.88- 84.6 88.3----
2024-06-19 06:18 am SE 5.1 8.0----29.88- 84.6 88.3----
2024-06-19 06:12 am SE 5.1 8.0----29.88- 84.0 88.3----
2024-06-19 06:06 am SE 4.1 9.9----29.88- 83.8 88.3----
2024-06-19 06:00 am SE 7.0 9.9----29.87+0.00 83.5 88.3----
2024-06-19 05:54 am SE 6.0 9.9----29.87- 83.1 88.3----
2024-06-19 05:48 am SE 6.0 11.1----29.88- 82.8 88.3----
2024-06-19 05:42 amSSE 8.0 12.0----29.87- 82.2 88.3----
2024-06-19 05:36 amSSE 7.0 9.9----29.87- 82.4 88.3----
2024-06-19 05:30 am E 1.9 6.0----29.87- 82.0 88.3----
2024-06-19 05:24 am E 4.1 7.0----29.87- 82.0 88.3----
2024-06-19 05:18 am E 4.1 6.0----29.87- 82.2 88.3----
2024-06-19 05:12 amENE 4.1 7.0----29.87- 82.2 88.3----
2024-06-19 05:06 amENE 6.0 8.0----29.87- 82.0 88.3----
2024-06-19 05:00 amENE 4.1 6.0----29.87-0.01 81.9 88.3----
2024-06-19 04:54 amENE 5.1 8.0----29.87- 81.7 88.3----
2024-06-19 04:48 amENE 4.1 6.0----29.86- 81.5 88.3----
2024-06-19 04:42 am E 5.1 7.0----29.87- 81.0 88.3----
2024-06-19 04:36 am E 5.1 7.0----29.87- 81.1 88.3----
2024-06-19 04:30 amENE 2.9 6.0----29.87- 81.3 88.3----
2024-06-19 04:24 amENE 4.1 5.1----29.87- 81.3 88.3----
2024-06-19 04:18 amENE 2.9 5.1----29.87- 81.0 88.3----
2024-06-19 04:12 am NE 1.9 2.9----29.87- 80.6 88.3----
2024-06-19 04:06 amNNE 1.9 4.1----29.87- 80.6 88.3----
2024-06-19 04:00 am NE 1.0 2.9----29.87-0.01 80.2 88.3----
2024-06-19 03:54 am NE 1.0 1.9----29.87- 80.1 88.3----
2024-06-19 03:48 am N 1.0 2.9----29.87- 79.9 88.3----
2024-06-19 03:42 amNNE 1.9 4.1----29.88- 79.9 88.3----
2024-06-19 03:36 amNNE 2.9 4.1----29.87- 79.9 88.3----
2024-06-19 03:30 amNNE 1.9 4.1----29.87- 80.2 88.3----
2024-06-19 03:24 amNNE 2.9 4.1----29.87- 80.1 88.3----
2024-06-19 03:18 am NE 1.9 5.1----29.88- 80.6 88.3----
2024-06-19 03:12 amENE 4.1 6.0----29.88- 80.8 88.5----
2024-06-19 03:06 am NE 5.1 6.0----29.88- 81.1 88.5----
2024-06-19 03:00 amESE 1.0 4.1----29.88-0.02 81.3 88.5----
2024-06-19 02:54 am SE 2.9 5.1----29.87- 80.6 88.5----
2024-06-19 02:48 am SE 4.1 8.0----29.86- 80.4 88.5----
2024-06-19 02:42 am SE 7.0 9.9----29.87- 80.6 88.5----
2024-06-19 02:36 am SE 7.0 13.0----29.87- 80.4 88.5----
2024-06-19 02:30 am SE 9.9 12.0----29.87- 81.0 88.5----
2024-06-19 02:24 am SE 6.0 12.0----29.88- 81.0 88.5----
2024-06-19 02:18 am SE 5.1 9.9----29.88- 82.2 88.5----
2024-06-19 02:12 am SE 6.0 11.1----29.88- 82.2 88.5----
2024-06-19 02:06 amESE 2.9 6.0----29.88- 82.2 88.5----
2024-06-19 02:00 am E 2.9 5.1----29.88-0.02 82.0 88.5----
2024-06-19 01:54 am NE 4.1 6.0----29.87- 81.5 88.5----
2024-06-19 01:48 amNNE 2.9 4.1----29.88- 81.3 88.5----
2024-06-19 01:42 am N 2.9 4.1----29.88- 81.5 88.5----
2024-06-19 01:36 amNNE 2.9 4.1----29.88- 81.7 88.5----
2024-06-19 01:30 amNNE 1.9 2.9----29.88-- 88.5----
2024-06-19 01:24 am NE 1.9 4.1----29.88-- 88.5----
2024-06-19 01:18 amNNE 2.9 4.1----29.88- 81.1 88.3----
2024-06-19 01:12 amNNE 1.9 2.9----29.88- 81.1 88.3----
2024-06-19 01:06 am N 1.0 1.9----29.88- 81.0 88.3----
2024-06-19 01:00 am N 1.9 2.9----29.88-0.02 81.1 88.2----
2024-06-19 12:54 am N 2.9 4.1----29.89- 81.5 88.2----
2024-06-19 12:48 am N 2.9 4.1----29.89- 81.3 88.2----
2024-06-19 12:42 amNNE 2.9 5.1----29.89- 81.5 88.2----
2024-06-19 12:36 am NE 1.9 2.9----29.89- 81.3 88.3----
2024-06-19 12:30 amNNE 1.9 5.1----29.89- 81.5 88.3----
2024-06-19 12:24 amNNE 2.9 6.0----29.89- 81.7 88.2----
2024-06-19 12:18 am NE 2.9 5.1----29.89- 81.9 88.2----
2024-06-19 12:12 amESE 1.9 6.0----29.89- 82.2 88.2----
2024-06-19 12:06 amESE 1.0 5.1----29.89- 81.9 88.3----
2024-06-19 12:00 am SE 1.9 6.0----29.90+0.01 81.3 88.3----
2024-06-18 11:54 pmSSE 4.1 8.0----29.90- 80.2 88.3----
2024-06-18 11:48 pmSSE 6.0 15.0----29.91- 80.2 88.5----
2024-06-18 11:42 pm SE 9.9 17.1----29.90- 82.2 88.5----
2024-06-18 11:36 pmESE 5.1 9.9----29.91- 83.3 88.5----
2024-06-18 11:30 pm NE 1.9 5.1----29.90- 83.5 88.7----
2024-06-18 11:24 pmNNE 2.9 4.1----29.91- 83.5 88.7----
2024-06-18 11:18 pmNNE 2.9 4.1----29.91- 83.3 88.7----
2024-06-18 11:12 pm NE 2.9 5.1----29.91- 83.1 88.5----
2024-06-18 11:06 pmNNE 2.9 5.1----29.90- 83.3 88.5----
2024-06-18 11:00 pm NE 2.9 5.1----29.90+0.03 83.7 88.5----
2024-06-18 10:54 pm NE 2.9 5.1----29.90- 83.7 88.5----
2024-06-18 10:48 pmNNE 2.9 6.0----29.91- 83.5 88.5----
2024-06-18 10:42 pmENE 5.1 7.0----29.91- 84.0 88.7----
2024-06-18 10:36 pmENE 7.0 8.0----29.91- 83.8 88.7----
2024-06-18 10:30 pmENE 6.0 8.9----29.91- 83.8 88.9----
2024-06-18 10:24 pmENE 4.1 5.1----29.91- 84.2 89.1----
2024-06-18 10:18 pmENE 5.1 6.0----29.91- 84.0 89.1----
2024-06-18 10:12 pm E 4.1 6.0----29.91- 84.2 89.2----
2024-06-18 10:06 pmENE 6.0 7.0----29.91- 84.2 89.4----
2024-06-18 10:00 pm E 2.9 6.0----29.90+0.04 84.6 89.4----
2024-06-18 09:54 pm E 2.9 6.0----29.90- 84.7 89.4----
2024-06-18 09:48 pm E 1.9 6.0----29.91- 84.2 89.4----
2024-06-18 09:42 pmENE 5.1 8.0----29.90- 84.4 89.4----
2024-06-18 09:36 pm SE 4.1 7.0----29.90- 85.5 89.4----
2024-06-18 09:30 pm SE 6.0 8.0----29.90- 85.3 89.4----
2024-06-18 09:24 pm SE 5.1 7.0----29.90- 85.3 89.4----
2024-06-18 09:18 pm SE 6.0 8.0----29.89- 85.1 89.4----
2024-06-18 09:12 pm SE 2.9 8.0----29.89- 85.1 89.4----
2024-06-18 09:06 pm SE 5.1 8.0----29.89- 85.1 89.4----
2024-06-18 09:00 pm SE 5.1 8.0----29.88+0.04 85.3 89.4----
2024-06-18 08:54 pm SE 6.0 8.0----29.88- 84.9 89.6----
2024-06-18 08:48 pmESE 2.9 8.0----29.87- 84.2 89.6----
2024-06-18 08:42 pm SE 5.1 9.9----29.87- 84.2 89.6----
2024-06-18 08:36 pm SE 6.0 9.9----29.87- 84.4 89.6----
2024-06-18 08:30 pm SE 5.1 12.0----29.87- 84.7 89.6----
2024-06-18 08:24 pm SE 4.1 8.9----29.87- 84.7 89.6----
2024-06-18 08:18 pm SE 6.0 11.1----29.87- 84.9 89.6----
2024-06-18 08:12 pm SE 6.0 8.0----29.87- 85.8 89.6----
2024-06-18 08:06 pm SE 6.0 9.9----29.87- 85.6 89.6----
2024-06-18 08:00 pm SE 4.1 7.0----29.87+0.03 85.8 89.6----
2024-06-18 07:54 pm SE 2.9 6.0----29.87- 85.6 89.6----
2024-06-18 07:48 pm SE 5.1 8.0----29.86- 85.8 89.6----
2024-06-18 07:42 pm SE 5.1 7.0----29.86- 85.8 89.4----
2024-06-18 07:36 pm SE 4.1 7.0----29.86- 85.6 89.4----
2024-06-18 07:30 pm SE 4.1 6.0----29.86- 85.8 89.4----
2024-06-18 07:24 pm SE 4.1 6.0----29.86- 85.8 89.4----
2024-06-18 07:18 pm SE 5.1 8.0----29.86- 85.8 89.4----
2024-06-18 07:12 pm SE 4.1 6.0----29.86- 85.8 89.4----
2024-06-18 07:06 pm SE 2.9 5.1----29.86- 85.8 89.4----
2024-06-18 07:00 pm SE 2.9 5.1----29.86+0.03 85.8 89.4----
2024-06-18 06:54 pm SE 4.1 6.0----29.85- 85.8 89.4----
2024-06-18 06:48 pmSSE 4.1 6.0----29.85- 86.0 89.4----
2024-06-18 06:42 pmSSE 4.1 6.0----29.85- 86.0 89.4----
2024-06-18 06:36 pmSSE 4.1 6.0----29.85- 86.2 89.4----
2024-06-18 06:30 pm SE 4.1 6.0----29.85- 86.5 89.4----
2024-06-18 06:24 pm SE 4.1 6.0----29.85- 86.7 89.4----
2024-06-18 06:18 pmSSE 4.1 5.1----29.85- 86.5 89.4----
2024-06-18 06:12 pmSSE 2.9 6.0----29.85- 86.5 89.4----
2024-06-18 06:06 pmSSE 2.9 5.1----29.85- 86.5 89.4----
2024-06-18 06:00 pm S 5.1 6.0----29.85+0.00 86.2 89.4----
2024-06-18 05:54 pmSSE 4.1 5.1----29.85- 86.7 89.4----
2024-06-18 05:48 pm S 4.1 6.0----29.84- 86.4 89.4----
2024-06-18 05:42 pmSSE 5.1 7.0----29.84- 86.4 89.4----
2024-06-18 05:36 pmSSE 5.1 8.0----29.84- 86.9 89.4----
2024-06-18 05:30 pm SE 2.9 6.0----29.84- 87.4 89.2----
2024-06-18 05:24 pmSSE 5.1 7.0----29.84- 87.4 89.2----
2024-06-18 05:18 pmSSE 4.1 6.0----29.84- 87.4 89.2----
2024-06-18 05:12 pmSSE 4.1 6.0----29.84- 87.3 89.1----
2024-06-18 05:06 pmSSE 5.1 7.0----29.83- 87.1 88.9----
2024-06-18 05:00 pmSSE 5.1 8.0----29.83-0.04 87.1 89.1----
2024-06-18 04:54 pmSSE 5.1 8.0----29.83- 87.3 89.2----
2024-06-18 04:48 pmSSE 5.1 7.0----29.83- 86.9 89.4----
2024-06-18 04:42 pmSSE 4.1 7.0----29.83- 87.1 89.4----
2024-06-18 04:36 pm S 5.1 8.0----29.83- 86.9 89.4----
2024-06-18 04:30 pmSSE 5.1 7.0----29.83- 87.4 89.4----
2024-06-18 04:24 pmSSE 5.1 7.0----29.83- 87.6 89.4----
2024-06-18 04:18 pm S 6.0 8.0----29.83- 87.1 89.4----
2024-06-18 04:12 pmSSE 5.1 8.0----29.83- 86.9 89.4----
2024-06-18 04:06 pmSSE 5.1 8.0----29.83- 87.3 89.4----
2024-06-18 04:00 pmSSE 5.1 8.0----29.83-0.06 87.4 89.4----
2024-06-18 03:54 pmSSE 4.1 7.0----29.83- 87.8 89.2----